Simultaneous Nadir Overpasses (SNOs) Predictions

Prediction of SNOs between GOES-15 and NOAA-20 Satellite Orbit:

Table of predicted SNOs for the next 14.0 days since TLE Epoch: 6/25/2022
Index Date Time (GOES-15) GOES-15 Lat,Lon NOAA-20 Lat,Lon Distance(km) Time Diff (sec)
1 06/26/2022 10:05:43 -0.11,-128.48 0.35,-130.40 219.41 80
2 06/27/2022 09:49:38 -0.09,-128.48 -0.65,-125.86 297.72 80
3 06/28/2022 22:08:54 0.13,-128.48 -0.50,-131.17 307.52 80
4 06/29/2022 21:52:48 0.11,-128.48 0.50,-126.64 209.59 80
5 07/01/2022 10:11:56 -0.15,-128.48 0.64,-131.91 391.14 80
6 07/02/2022 09:55:50 -0.13,-128.48 -0.35,-127.38 125.54 80
7 07/03/2022 22:15:07 0.16,-128.47 -0.79,-132.69 480.81 80
8 07/04/2022 21:59:01 0.15,-128.47 0.22,-128.15 35.95 80
9 07/07/2022 09:59:23 -0.16,-128.46 -0.07,-128.89 48.60 80
10 07/08/2022 09:43:17 -0.15,-128.46 -1.07,-124.36 467.34 80
